Location: Litvinovka
(48.6667°N, 34.3500°E)
Time: 07:22:23
(UTC+00:00)

Resurs 01 Rocket - Pass Details

Date: 18 September 2020
Orbit: 633 x 645 km, 98.0° (Epoch: 22 October)

Event Time Altitude Azimuth Distance (km) Brightness Sun altitude
Exits shadow 17:41:42 41° 103° (ESE) 945 2.0 -18.9°
Maximum altitude 17:42:33 46° 70° (ENE) 868 2.0 -19.0°
Drops below altitude 10° 17:46:50 10° 357° (N) 2,053 4.6 -19.6°
Sets 17:49:06 0° 352° (N) 2,966 5.6 -20.0°
